Regional Weather Roundup
Issued by NWS

Home | Current Version | Previous Version | Graphics & Text | Print | Product List | Glossary On
Versions: 1 2 3 4 5 6 7 8 9 10 11 12 13 14 15 16 17 18 19 20 21 22 23 24 25 26 27 28 29 30 31 32 33 34 35 36 37 38 39 40 41 42 43 44 45 46 47 48 49 50
000
ASUS44 KMEG 222010
RWRTN
TENNESSEE HOURLY STATE WEATHER ROUNDUP
NATIONAL WEATHER SERVICE MEMPHIS TN
300 PM CDT THU JUN 22 2017

TNZ002-004-019-021-049-052-054-088>092-222100-
WEST TENNESSEE

CITY           SKY/WX    TMP DP  RH WIND       PRES   REMARKS
MEMPHIS INTL   PTSUNNY   88  74  63 SE15G25   29.77F HX  96
NWS MEMPHIS      N/A     87 N/A N/A MISG        N/A
JACKSON        PTSUNNY   86  75  69 S8G21     29.82F HX  95
COVINGTON      PTSUNNY   86  77  74 SE20      29.78F HX  97
UNION CITY     PTSUNNY   84  77  79 S12G21    29.80F HX  94
BOLIVAR        PTSUNNY   86  73  66 SE13      29.80F HX  93
PARIS          CLOUDY    81  75  83 S12       29.84F
HUNTINGDON     PTSUNNY   84  77  79 SE9       29.83F HX  94
LEXINGTON      PTSUNNY   84  75  74 S14       29.84F HX  92
SELMER         PTSUNNY   84  75  74 S9G16     29.83F HX  92
SAVANNAH       MOSUNNY   84  75  74 S14G23    29.84F HX  92
$$

TNZ008-025-027-028-033-062-065-066-222100-
NORTH MIDDLE TENNESSEE

CITY           SKY/WX    TMP DP  RH WIND       PRES   REMARKS
NASHVILLE      LGT RAIN  78  74  87 S13       29.92F
PORTLAND       PTSUNNY   73  72  94 S12       29.92F FOG
CLARKSVILLE    LGT RAIN  74  72  93 SE6       29.89F
SMYRNA         CLOUDY    76  74  93 VRB5      29.93F
COOKEVILLE     PTSUNNY   73  72  94 S9        29.96F
GALLATIN       CLOUDY    75  73  94 SE7G13    29.95F FOG
CROSSVILLE     LGT RAIN  71  68  90 SE8G20    30.04F
$$

TNZ061-075-076-078-094-096-097-222100-
SOUTH MIDDLE TENNESSEE

CITY           SKY/WX    TMP DP  RH WIND       PRES   REMARKS
FAYETTEVILLE   CLOUDY    75  75 100 S13       29.94F
TULLAHOMA      CLOUDY    73  72  94 S8        29.97S
WINCHESTER     CLOUDY    75  73  94 S7          N/A
MCMINNVILLE    CLOUDY    77  77 100 S7        29.97F
COLUMBIA       CLOUDY    81  75  83 S12G21    29.88S
SHELBYVILLE    CLOUDY    77  73  88 SE9       29.93F FOG
$$

TNZ017-018-042-046-047-222100-
NORTHEAST TENNESSEE

CITY           SKY/WX    TMP DP  RH WIND       PRES   REMARKS
TRI CITIES     CLOUDY    73  70  90 CALM      30.12F
ELIZABETHTON   CLOUDY    73  70  88 SE5       30.12F
$$

TNZ012-013-036-069-073-074-222100-
CENTRAL EAST TENNESSEE

CITY           SKY/WX    TMP DP  RH WIND       PRES   REMARKS
KNOXVILLE      LGT RAIN  74  71  91 E8        30.03F
OAK RIDGE      CLOUDY    77  70  79 E3        30.05F
DOWNTOWN KNOXV SUNNY     75  72  88 E6        30.04F
GATLINBURG     SUNNY     73  70  88 VRB5      30.06S
MORRISTOWN     MOSUNNY   75  72  88 E6        30.08S FOG
JACKSBORO      MOSUNNY   75  72  88 VRB3      30.08F
$$

TNZ083-085-099-222100-
SOUTHEAST TENNESSEE

CITY           SKY/WX    TMP DP  RH WIND       PRES   REMARKS
CHATTANOOGA    LGT RAIN  76  73  91 SE6       30.00F FOG
$$

SKY/WX REPORTED AS FAIR MEANS FEW OR NO CLOUDS BELOW
12 THOUSAND FEET.





USA.gov is the U.S. government's official web portal to all federal, state and local government web resources and services.